[[{"header":{"parameterUnit":"m.s-1","parameterCategory":2,"la1":30.2991,"la2":30.254,"lo1":-89.0895,"lo2":-89.0444,"dy":0.0017,"dx":0.0017,"nx":28,"ny":28,"refTime":"2024-12-31T03:00:00:Z","depth":"0","parameterNumber":2,"parameterNumberName":"U-component_of_CURRENTS"},"data":[0,0,0,0,0,0,0,0,0,0,0,0,0,0,0,0,0,0,0,0,0,0,0,0,0,0,0,0,0,0,0,0,0,0,0,0,0,0,0,0,0,0,0,0,0,0,0,0,0,0,0,0,0,0,0,0,0,0,0.305,0.305,0,0.3035,0.3034,0.3034,0.3009,0.3009,0.3008,0.3008,0.3003,0.3003,0.3003,0,0,0,0,0,0,0,0,0,0,0,0,0,0.3065,0.3065,0.305,0.305,0.305,0.3035,0.3034,0.3034,0.3009,0.3008,0.3008,0.3008,0.3003,0.3003,0.3003,0,0,0,0,0,0,0,0,0,0,0,0,0,0.3054,0.3065,0.305,0.3037,0.3035,0.3035,0.3034,0.3034,0.3009,0.3008,0.3008,0.3008,0.3003,0.3003,0.3003,0.3015,0,0,0.3004,0.3004,0,0,0,0,0,0,0,0,0.3054,0.3053,0.3039,0.3038,0.3036,0.3024,0.3038,0.3029,0.3009,0.3018,0.3008,0.3007,0.3012,0.3012,0.3008,0.3015,0.3015,0.3004,0.3004,0.3005,0.3005,0,0,0,0,0,0,0,0.3055,0.3054,0.3043,0.3039,0.3037,0.3034,0.3031,0.3036,0.3017,0.3017,0.3015,0.3016,0.3012,0.3008,0.3008,0.3015,0.3004,0.3005,0.3005,0.3005,0.3081,0.3082,0,0,0,0,0,0,0.306,0.3054,0.3043,0.3042,0.3046,0.3034,0.3031,0.3028,0.3017,0.3015,0.3016,0.3015,0.3008,0.3007,0.3008,0.3061,0.3005,0.3005,0.3005,0.3079,0.3081,0.3083,0,0,0,0,0,0,0.306,0.3059,0.3044,0.3049,0.3047,0.3034,0.303,0.3028,0.3027,0.3017,0.3015,0.3019,0.3007,0.3007,0.3024,0.3059,0.3005,0.3005,0.3077,0.308,0.3082,0.3142,0,0,0,0,0,0,0.3061,0.3059,0.306,0.305,0.3047,0.3053,0.3031,0.3028,0.3029,0.3026,0.3019,0.3017,0.3007,0.3024,0.3024,0.3058,0.3005,0.3074,0.3078,0.3081,0.3138,0.3146,0.3154,0,0,0,0,0,0.3061,0.3065,0.306,0.3059,0.3048,0.3054,0.3053,0.3041,0.3029,0.3037,0.3034,0.3018,0.3046,0.3025,0.3025,0.306,0.3073,0.3077,0.3081,0.3134,0.3145,0.3154,0,0,0,0,0,0,0.307,0.3063,0.3057,0.3058,0.3061,0.3051,0.3057,0.3048,0.3049,0.3049,0.3033,0.3033,0.3064,0.3055,0.3032,0.3095,0.3061,0.3065,0.3101,0.3111,0.3119,0.3113,0.3006,0,0,0,0,0,0.3074,0.3076,0.3072,0.3074,0.3078,0.3069,0.307,0.3064,0.3063,0.3062,0.3054,0.306,0.3082,0.3089,0.3099,0.3127,0.3116,0.3153,0.3162,0.3168,0.3166,0.3194,0.3204,0.3097,0.3097,0.3097,0,0,0.3076,0.3075,0.3074,0.3077,0.3077,0.3089,0.3068,0.3077,0.3089,0.3064,0.3077,0.3085,0.3096,0.3131,0.3145,0.3127,0.3193,0.3174,0.3179,0.3173,0.3199,0.321,0.3219,0.31,0.3099,0.3099,0,0,0.3087,0.3085,0.3092,0.31,0.3108,0.3108,0.3114,0.311,0.3112,0.313,0.3125,0.3151,0.3167,0.3186,0.3199,0.3259,0.3235,0.327,0.3304,0.3332,0.3341,0.3348,0.334,0.3347,0.3273,0.3273,0.3273,0,0.3092,0.3096,0.3098,0.3112,0.3121,0.312,0.3135,0.3144,0.3145,0.3162,0.3144,0.3194,0.3196,0.3256,0.3276,0.3277,0.3275,0.3264,0.3342,0.3349,0.3356,0.3345,0.3352,0.3277,0.3276,0.3276,0.3276,0,0.3107,0.3116,0.3125,0.3143,0.3157,0.317,0.3186,0.3201,0.3205,0.3219,0.3269,0.3273,0.3302,0.3319,0.3313,0.3374,0.3351,0.3348,0.3313,0.337,0.3356,0.3361,0.3282,0.328,0.3279,0.3278,0,0,0.3099,0.3129,0.3131,0.3142,0.3172,0.3181,0.3222,0.3259,0.3291,0.3306,0.3346,0.339,0.3391,0.3406,0.3408,0.3432,0.3471,0.3409,0.3409,0.3392,0.3511,0.3437,0.3435,0.3485,0.3487,0.3488,0.3478,0,0.3109,0.3134,0.3152,0.318,0.3194,0.322,0.3258,0.3298,0.3331,0.3371,0.3404,0.3442,0.3427,0.3441,0.3468,0.3474,0.3489,0.3472,0.3465,0.3463,0.3385,0.3441,0.3294,0.3269,0.3483,0.3484,0.3485,0,0.3109,0.3129,0.3153,0.3195,0.3206,0.3227,0.3289,0.3327,0.3403,0.3435,0.3487,0.35,0.3544,0.3514,0.3552,0.3542,0.3527,0.3525,0.3525,0.3436,0.34,0.325,0.327,0.3166,0.3492,0.3492,0.3491,0,0.3083,0.3125,0.3141,0.3154,0.3208,0.323,0.3267,0.3345,0.3392,0.3473,0.3505,0.3564,0.3582,0.3594,0.358,0.357,0.3607,0.3591,0.351,0.3503,0.3365,0.3343,0.3274,0.3613,0.3613,0.3613,0.3613,0,0.3072,0.3085,0.3127,0.3134,0.3167,0.3216,0.3272,0.3326,0.3415,0.3466,0.3526,0.3563,0.3604,0.3622,0.3604,0.3571,0.3626,0.3518,0.3505,0.338,0.3361,0.3253,0.3226,0.3612,0.3612,0.3612,0.3612,0,0.303,0.3059,0.3078,0.3132,0.3148,0.3173,0.3261,0.3304,0.3397,0.3459,0.3481,0.3576,0.3597,0.3614,0.3634,0.3589,0.3461,0.3544,0.3376,0.3343,0.3148,0.313,0.2961,0.2879,0.3441,0.344,0.3438,0,0.3008,0.3012,0.3059,0.3066,0.3084,0.3135,0.3167,0.3279,0.3328,0.3451,0.3466,0.3529,0.3547,0.356,0.3507,0.3462,0.3383,0.3293,0.3247,0.3118,0.309,0.2997,0.2935,0.3083,0.3079,0.3075,0.3072,0,0.2967,0.2981,0.2996,0.301,0.3031,0.307,0.3125,0.3163,0.328,0.3322,0.3387,0.3419,0.3444,0.3349,0.3307,0.3264,0.3121,0.3218,0.3137,0.2846,0.2687,0.2608,0.3093,0.3041,0.3045,0.3047,0.3048,0.305,0.2929,0.2922,0.2935,0.2935,0.2958,0.2971,0.2966,0.3029,0.3073,0.3091,0.3226,0.3194,0.3187,0.3112,0.306,0.2857,0.2893,0.2737,0.2738,0.2663,0.2542,0.2945,0.2853,0.2854,0.2856,0.2858,0.2859,0,0.286,0.2853,0.2857,0.2842,0.2817,0.287,0.2898,0.2865,0.2839,0.2889,0.2911,0.2842,0.2741,0.2709,0.2541,0.2396,0.2306,0.2312,0.2151,0.2127,0.2521,0.2464,0.2219,0.2219,0.2219,0.2219,0.2219,0.222,0.2826,0.2785,0.2773,0.2691,0.268,0.261,0.2598,0.256,0.2563,0.2464,0.2394,0.2411,0.2434,0.2309,0.2109,0.2047,0.1897,0.1782,0.1816,0.2101,0.2141,0.2178,0.2117,0.1803,0.1803,0.1315,0.1311,0.1308]},{"header":{"parameterUnit":"m.s-1","parameterCategory":2,"la1":30.2991,"la2":30.254,"lo1":-89.0895,"lo2":-89.0444,"dy":0.0017,"dx":0.0017,"nx":28,"ny":28,"refTime":"2024-12-31T03:00:00:Z","depth":"0","parameterNumber":3,"parameterNumberName":"V-component_of_CURRENTS"},"data":[0,0,0,0,0,0,0,0,0,0,0,0,0,0,0,0,0,0,0,0,0,0,0,0,0,0,0,0,0,0,0,0,0,0,0,0,0,0,0,0,0,0,0,0,0,0,0,0,0,0,0,0,0,0,0,0,0,0,0.0218,0.0218,0,0.0204,0.0203,0.0203,0.0188,0.0188,0.0188,0.0187,0.0156,0.0155,0.0154,0,0,0,0,0,0,0,0,0,0,0,0,0,0.0194,0.0195,0.0218,0.0218,0.0218,0.0204,0.0203,0.0203,0.0188,0.0188,0.0188,0.0187,0.0156,0.0155,0.0154,0,0,0,0,0,0,0,0,0,0,0,0,0,0.0194,0.0195,0.0218,0.0209,0.0208,0.0204,0.0203,0.0203,0.0188,0.0188,0.0187,0.0187,0.0156,0.0155,0.0154,0.0152,0,0,0.0151,0.015,0,0,0,0,0,0,0,0,0.0194,0.0195,0.021,0.0209,0.0208,0.0198,0.0183,0.0185,0.0188,0.0195,0.0187,0.0187,0.0169,0.0167,0.0164,0.0151,0.0149,0.0151,0.015,0.015,0.0149,0,0,0,0,0,0,0,0.0194,0.0195,0.0211,0.021,0.0209,0.0193,0.0193,0.0184,0.0182,0.0194,0.0193,0.0193,0.0168,0.0165,0.0163,0.0149,0.0151,0.015,0.0149,0.0149,0.0131,0.0132,0,0,0,0,0,0,0.02,0.0195,0.0212,0.0211,0.0201,0.0194,0.0193,0.0201,0.0183,0.018,0.0193,0.0192,0.0167,0.0164,0.0162,0.017,0.015,0.0149,0.0148,0.0131,0.0132,0.0132,0,0,0,0,0,0,0.0199,0.0202,0.0212,0.0203,0.0203,0.0195,0.0203,0.0201,0.02,0.0182,0.0179,0.0195,0.0166,0.0163,0.0158,0.0168,0.0148,0.0147,0.0131,0.0131,0.0132,0.0179,0,0,0,0,0,0,0.0199,0.0202,0.0207,0.0204,0.0204,0.0217,0.0203,0.0201,0.02,0.0199,0.0183,0.0179,0.0166,0.0159,0.0156,0.0166,0.0146,0.0131,0.0131,0.0132,0.0178,0.0181,0.0184,0,0,0,0,0,0.0198,0.0211,0.0208,0.0209,0.0213,0.0217,0.0216,0.0208,0.0201,0.0205,0.0192,0.018,0.0159,0.0159,0.0155,0.0165,0.0131,0.0131,0.0131,0.0176,0.018,0.0184,0,0,0,0,0,0,0.0202,0.021,0.0207,0.0221,0.0221,0.0215,0.0219,0.0212,0.0205,0.0202,0.0184,0.018,0.0178,0.0164,0.0163,0.016,0.0142,0.0142,0.0177,0.0181,0.0184,0.0205,0.0145,0,0,0,0,0,0.0206,0.0219,0.0219,0.023,0.0233,0.0226,0.0226,0.022,0.0214,0.0211,0.02,0.0186,0.0176,0.0173,0.0161,0.0162,0.0148,0.0164,0.0168,0.0171,0.0184,0.0175,0.0179,0.0133,0.0133,0.0133,0,0,0.0209,0.0216,0.0222,0.0231,0.0231,0.0246,0.0225,0.023,0.0239,0.0209,0.0217,0.0197,0.0178,0.0178,0.0176,0.0169,0.0174,0.0171,0.0174,0.0186,0.0176,0.0181,0.0185,0.0133,0.0133,0.0133,0,0,0.0228,0.023,0.025,0.0255,0.026,0.0258,0.0262,0.0259,0.0255,0.0258,0.0237,0.0226,0.0214,0.0204,0.0197,0.0211,0.019,0.0204,0.0242,0.0233,0.0237,0.0241,0.0219,0.022,0.0208,0.0208,0.0208,0,0.0231,0.026,0.0254,0.0276,0.0288,0.0269,0.0294,0.0287,0.0281,0.0289,0.0266,0.0254,0.0228,0.0238,0.0237,0.0221,0.0209,0.023,0.0239,0.0242,0.0245,0.0222,0.0223,0.0211,0.021,0.021,0.021,0,0.027,0.0291,0.0304,0.0329,0.0337,0.0354,0.035,0.0353,0.0343,0.0343,0.0345,0.0307,0.0304,0.0287,0.0265,0.0276,0.0258,0.0243,0.0233,0.0253,0.0227,0.0227,0.0214,0.0213,0.0213,0.0212,0,0,0.0287,0.0325,0.033,0.0356,0.0369,0.0385,0.0399,0.0418,0.0447,0.0417,0.0447,0.0408,0.0389,0.0378,0.0344,0.0331,0.0323,0.03,0.0298,0.0285,0.0298,0.0294,0.0293,0.0313,0.0314,0.0314,0.0268,0,0.0322,0.038,0.0385,0.0436,0.0469,0.0461,0.0484,0.0494,0.0498,0.0519,0.0476,0.0484,0.0423,0.042,0.0396,0.0351,0.0327,0.0337,0.0275,0.0273,0.0273,0.0294,0.033,0.0293,0.0268,0.0268,0.0268,0,0.0363,0.04,0.0459,0.0509,0.0522,0.0544,0.0591,0.0611,0.0627,0.0631,0.0625,0.0591,0.0563,0.0503,0.0434,0.0446,0.0376,0.0329,0.0326,0.0311,0.0269,0.027,0.0294,0.0223,0.0268,0.0268,0.0268,0,0.0396,0.0453,0.0505,0.0522,0.057,0.0592,0.0617,0.0649,0.0692,0.0705,0.073,0.0688,0.0676,0.0588,0.0477,0.0459,0.0402,0.0362,0.0288,0.0286,0.0299,0.0298,0.0257,0.0309,0.0309,0.0309,0.0309,0,0.0439,0.0481,0.0525,0.0557,0.0627,0.064,0.0717,0.0736,0.0785,0.0856,0.079,0.0829,0.07,0.0643,0.052,0.0416,0.0431,0.0306,0.0283,0.0314,0.0315,0.024,0.0192,0.0307,0.0308,0.0308,0.0308,0,0.047,0.0496,0.0565,0.0623,0.0646,0.0698,0.0786,0.0851,0.0877,0.0961,0.0964,0.0949,0.0883,0.0738,0.0611,0.0491,0.0335,0.0325,0.0365,0.0348,0.021,0.0164,0.0086,0.0058,0.024,0.024,0.024,0,0.0492,0.053,0.0615,0.0665,0.0694,0.0774,0.0838,0.0894,0.0975,0.1045,0.1096,0.1055,0.106,0.0868,0.0658,0.0452,0.0347,0.0329,0.0295,0.0222,0.0153,0.0107,0.0086,0.032,0.032,0.032,0.0321,0,0.0537,0.0564,0.0622,0.0726,0.08,0.0897,0.0993,0.1073,0.1148,0.1227,0.1326,0.1332,0.1152,0.0998,0.0706,0.0547,0.0298,0.0329,0.0251,0.0218,0.0169,0.0126,0.0316,0.0324,0.0324,0.0324,0.0323,0.0323,0.0569,0.0618,0.0695,0.0796,0.0888,0.101,0.1104,0.1224,0.1368,0.1503,0.1504,0.1551,0.1294,0.0926,0.0707,0.0342,0.0322,0.0233,0.0183,0.0142,0.0125,0.0319,0.0303,0.0303,0.0302,0.0302,0.0302,0,0.0609,0.067,0.0764,0.0885,0.0993,0.1035,0.1204,0.1317,0.1501,0.1631,0.1729,0.1641,0.1338,0.0976,0.0488,0.0249,0.0148,0.0115,0.0066,0.005,0.0227,0.0242,0.0217,0.0217,0.0217,0.0217,0.0217,0.0218,0.0632,0.072,0.0771,0.0949,0.1041,0.1193,0.1297,0.1475,0.1612,0.1797,0.1847,0.1856,0.1584,0.0755,0.0234,0.0115,-0.0033,-0.0077,-0.0157,-0.0029,-0.0022,-0.0015,-0.0011,-0.0089,-0.009,-0.0293,-0.0295,-0.0297]}],[{"header":{"parameterUnit":"m.s-1","parameterCategory":2,"la1":30.2991,"la2":30.254,"lo1":-89.0895,"lo2":-89.0444,"dy":0.0017,"dx":0.0017,"nx":28,"ny":28,"refTime":"2024-12-31T03:00:00:Z","depth":"2","parameterNumber":2,"parameterNumberName":"U-component_of_CURRENTS"},"data":[0,0,0,0,0,0,0,0,0,0,0,0,0,0,0,0,0,0,0,0,0,0,0,0,0,0,0,0,0,0,0,0,0,0,0,0,0,0,0,0,0,0,0,0,0,0,0,0,0,0,0,0,0,0,0,0,0,0,0.2326,0.2326,0,0.2324,0.2324,0.2324,0.232,0.232,0.232,0.232,0.2321,0.2321,0.2321,0,0,0,0,0,0,0,0,0,0,0,0,0,0.2342,0.2341,0.2326,0.2326,0.2326,0.2324,0.2324,0.2324,0.232,0.232,0.232,0.232,0.2321,0.2321,0.2321,0,0,0,0,0,0,0,0,0,0,0,0,0,0.2336,0.2341,0.2326,0.2325,0.2325,0.2324,0.2324,0.2323,0.232,0.232,0.232,0.232,0.2321,0.2321,0.2321,0.232,0,0,0.2321,0.2321,0,0,0,0,0,0,0,0,0.2336,0.2335,0.2325,0.2325,0.2325,0.2323,0.233,0.2323,0.232,0.232,0.232,0.232,0.2323,0.2323,0.232,0.232,0.232,0.2321,0.2321,0.2321,0.2321,0,0,0,0,0,0,0,0.2336,0.2335,0.2324,0.2325,0.2325,0.233,0.2329,0.2329,0.232,0.232,0.232,0.2322,0.2323,0.2321,0.2321,0.232,0.2321,0.2321,0.2321,0.2321,0.2379,0.2381,0,0,0,0,0,0,0.2338,0.2335,0.2324,0.2324,0.2332,0.233,0.2328,0.2323,0.232,0.232,0.2322,0.2322,0.2321,0.2321,0.2321,0.2369,0.2321,0.2321,0.2321,0.2378,0.238,0.2381,0,0,0,0,0,0,0.2338,0.2337,0.2324,0.2331,0.233,0.2329,0.2323,0.2323,0.2332,0.2322,0.2322,0.2333,0.2321,0.2321,0.2338,0.2367,0.2321,0.2321,0.2376,0.2378,0.2381,0.2433,0,0,0,0,0,0,0.2339,0.2337,0.234,0.2331,0.233,0.2334,0.2323,0.2323,0.2333,0.2333,0.2331,0.233,0.2321,0.2338,0.2338,0.2366,0.2321,0.2374,0.2377,0.238,0.243,0.2437,0.2444,0,0,0,0,0,0.2339,0.2341,0.234,0.2339,0.2331,0.2335,0.2335,0.2334,0.2333,0.2342,0.2345,0.2331,0.2357,0.2339,0.2338,0.2368,0.2373,0.2376,0.238,0.2426,0.2436,0.2443,0,0,0,0,0,0,0.2349,0.234,0.2339,0.2338,0.2343,0.2335,0.2345,0.2343,0.2351,0.2356,0.2344,0.2344,0.2373,0.2364,0.2345,0.2395,0.2365,0.2369,0.2401,0.241,0.2417,0.2415,0.2321,0,0,0,0,0,0.2353,0.2352,0.2348,0.235,0.2354,0.2352,0.2356,0.2357,0.236,0.2364,0.2362,0.2369,0.2386,0.2392,0.2399,0.242,0.2418,0.2442,0.2449,0.2455,0.2455,0.2491,0.2501,0.2393,0.2393,0.2393,0,0,0.2357,0.2354,0.2353,0.2353,0.2356,0.2365,0.2355,0.2367,0.2379,0.2363,0.2382,0.2392,0.2397,0.2426,0.2439,0.2422,0.2484,0.2459,0.2464,0.2461,0.2496,0.2506,0.2515,0.2395,0.2395,0.2395,0,0,0.2364,0.2364,0.2366,0.2372,0.2383,0.2384,0.2392,0.2394,0.2403,0.2424,0.2423,0.2449,0.2463,0.2475,0.2483,0.2533,0.2521,0.2543,0.2574,0.261,0.2619,0.2626,0.2631,0.2639,0.2545,0.2545,0.2545,0,0.2373,0.2369,0.237,0.2378,0.2385,0.2395,0.2404,0.2417,0.2426,0.2446,0.244,0.2488,0.2487,0.2532,0.255,0.2549,0.2558,0.254,0.2618,0.2626,0.2633,0.2636,0.2644,0.2548,0.2548,0.2547,0.2547,0,0.2376,0.2382,0.2388,0.2398,0.2409,0.2421,0.2437,0.2458,0.2475,0.2492,0.2543,0.255,0.258,0.2591,0.2584,0.2641,0.2627,0.2624,0.2594,0.2647,0.2647,0.2654,0.2552,0.2551,0.255,0.2549,0,0,0.2371,0.2386,0.2389,0.2396,0.242,0.2426,0.2463,0.2497,0.2532,0.2559,0.2603,0.2639,0.2654,0.2664,0.2667,0.2694,0.2746,0.2682,0.2683,0.2682,0.2811,0.2734,0.2734,0.2763,0.2765,0.2767,0.2788,0,0.2374,0.2385,0.2396,0.2415,0.2421,0.245,0.2483,0.2522,0.2563,0.2611,0.2647,0.2691,0.268,0.2702,0.2732,0.2747,0.2769,0.2739,0.2764,0.2764,0.2686,0.2742,0.2516,0.2511,0.2795,0.2796,0.2797,0,0.2367,0.2376,0.2389,0.2421,0.2429,0.2449,0.2508,0.2542,0.2622,0.2661,0.2721,0.2746,0.2797,0.2776,0.2833,0.2818,0.2818,0.2822,0.2823,0.2737,0.2702,0.2506,0.2513,0.2809,0.2808,0.2807,0.2806,0,0.2342,0.2369,0.2378,0.2386,0.2428,0.2452,0.2487,0.2562,0.2607,0.2699,0.2741,0.2809,0.2844,0.2871,0.2878,0.2867,0.2929,0.2911,0.2838,0.2831,0.2633,0.2606,0.2947,0.2947,0.2947,0.2946,0.2946,0,0.2326,0.2334,0.2369,0.2372,0.2401,0.2442,0.2497,0.255,0.2639,0.2692,0.2765,0.2808,0.2874,0.291,0.2907,0.2895,0.2954,0.2849,0.2841,0.2644,0.2619,0.2872,0.2863,0.2947,0.2947,0.2947,0.2947,0,0.2288,0.2311,0.2323,0.2369,0.2385,0.241,0.2491,0.2532,0.2628,0.2696,0.2727,0.2831,0.2879,0.2917,0.2962,0.2922,0.2922,0.2898,0.265,0.2611,0.2789,0.2783,0.2819,0.2816,0.2814,0.2813,0.2811,0,0.2266,0.2268,0.2309,0.2316,0.2336,0.2383,0.2413,0.2516,0.2559,0.2691,0.2709,0.28,0.2832,0.2877,0.2833,0.2815,0.2887,0.2584,0.2517,0.2792,0.2781,0.2777,0.2774,0.2271,0.2265,0.2261,0.2257,0,0.2226,0.2244,0.2253,0.2268,0.2291,0.2318,0.2369,0.2401,0.2512,0.2564,0.263,0.2674,0.2727,0.2612,0.2603,0.2561,0.2571,0.2488,0.2854,0.2343,0.2279,0.2267,0.228,0.2215,0.2219,0.2222,0.2225,0.2226,0.2195,0.2188,0.22,0.2203,0.2227,0.2226,0.2213,0.2269,0.2306,0.2346,0.2467,0.2447,0.2467,0.2339,0.225,0.2172,0.235,0.2227,0.224,0.2258,0.2196,0.2133,0.2028,0.2031,0.2033,0.2036,0.2038,0,0.2138,0.213,0.213,0.2115,0.209,0.2143,0.2152,0.2109,0.2088,0.216,0.2191,0.2008,0.1929,0.1949,0.1758,0.1738,0.1713,0.1666,0.161,0.1653,0.1691,0.1598,0.1272,0.127,0.1268,0.1265,0,0,0.2107,0.2068,0.2052,0.1973,0.1967,0.1896,0.1876,0.1832,0.1838,0.1784,0.1753,0.1887,0.1918,0.1588,0.1526,0.1366,0.1506,0.1313,0.193,0.1911,0.1946,0.202,0.1926,0,0,0,0,0]},{"header":{"parameterUnit":"m.s-1","parameterCategory":2,"la1":30.2991,"la2":30.254,"lo1":-89.0895,"lo2":-89.0444,"dy":0.0017,"dx":0.0017,"nx":28,"ny":28,"refTime":"2024-12-31T03:00:00:Z","depth":"2","parameterNumber":3,"parameterNumberName":"V-component_of_CURRENTS"},"data":[0,0,0,0,0,0,0,0,0,0,0,0,0,0,0,0,0,0,0,0,0,0,0,0,0,0,0,0,0,0,0,0,0,0,0,0,0,0,0,0,0,0,0,0,0,0,0,0,0,0,0,0,0,0,0,0,0,0,0.0281,0.0281,0,0.027,0.027,0.027,0.0256,0.0256,0.0256,0.0256,0.0236,0.0236,0.0235,0,0,0,0,0,0,0,0,0,0,0,0,0,0.0257,0.0257,0.0281,0.0281,0.0281,0.027,0.027,0.027,0.0256,0.0256,0.0256,0.0255,0.0236,0.0236,0.0235,0,0,0,0,0,0,0,0,0,0,0,0,0,0.0258,0.0258,0.0281,0.0273,0.0272,0.027,0.027,0.027,0.0256,0.0256,0.0256,0.0255,0.0236,0.0236,0.0235,0.0238,0,0,0.0234,0.0233,0,0,0,0,0,0,0,0,0.0258,0.0259,0.0274,0.0274,0.0273,0.0264,0.0254,0.0259,0.0256,0.0262,0.0256,0.0255,0.0245,0.0244,0.0242,0.0237,0.0236,0.0233,0.0233,0.0233,0.0233,0,0,0,0,0,0,0,0.0258,0.026,0.0277,0.0274,0.0273,0.0258,0.0258,0.0255,0.0255,0.0262,0.0261,0.026,0.0244,0.0243,0.0241,0.0236,0.0234,0.0233,0.0233,0.0233,0.023,0.023,0,0,0,0,0,0,0.0262,0.026,0.0277,0.0276,0.0265,0.0259,0.0259,0.0267,0.0255,0.0253,0.026,0.0259,0.0244,0.0242,0.0241,0.0254,0.0233,0.0232,0.0232,0.0229,0.023,0.023,0,0,0,0,0,0,0.0262,0.0264,0.0277,0.0267,0.0268,0.026,0.0269,0.0267,0.0266,0.0254,0.0252,0.0261,0.0243,0.0241,0.0242,0.0253,0.0232,0.0232,0.0229,0.0229,0.023,0.0274,0,0,0,0,0,0,0.0262,0.0265,0.027,0.0268,0.0269,0.0281,0.0269,0.0267,0.0266,0.0265,0.0255,0.0252,0.0243,0.0243,0.0242,0.0252,0.0231,0.0229,0.0229,0.023,0.0272,0.0276,0.0279,0,0,0,0,0,0.0261,0.0273,0.0271,0.0272,0.0277,0.0282,0.0281,0.0274,0.0267,0.0271,0.0263,0.0253,0.0244,0.0243,0.0241,0.0252,0.0229,0.0229,0.023,0.0271,0.0275,0.0279,0,0,0,0,0,0,0.0263,0.0273,0.027,0.0284,0.0284,0.028,0.0283,0.0277,0.0274,0.0272,0.0259,0.0256,0.026,0.0248,0.0247,0.025,0.0233,0.0234,0.0265,0.0269,0.0272,0.0287,0.0231,0,0,0,0,0,0.0267,0.0281,0.0282,0.0293,0.0295,0.0289,0.0289,0.0285,0.0282,0.028,0.0273,0.0264,0.0261,0.0259,0.0253,0.0258,0.024,0.0261,0.0264,0.0267,0.0277,0.0259,0.0261,0.0232,0.0232,0.0232,0,0,0.027,0.0277,0.0284,0.0294,0.0294,0.0309,0.0289,0.0294,0.0304,0.0279,0.029,0.0277,0.0264,0.027,0.027,0.0262,0.0264,0.0268,0.0271,0.0279,0.0259,0.0262,0.0265,0.0232,0.0232,0.0232,0,0,0.0287,0.0291,0.031,0.0316,0.0321,0.032,0.0324,0.0322,0.032,0.0327,0.0311,0.0305,0.0301,0.0294,0.029,0.0307,0.0283,0.0303,0.0333,0.0315,0.0318,0.032,0.0293,0.0293,0.0304,0.0305,0.0305,0,0.0289,0.0318,0.0314,0.0335,0.0347,0.033,0.0354,0.035,0.0347,0.0355,0.0336,0.0331,0.0314,0.0325,0.0328,0.0316,0.0299,0.0321,0.032,0.0322,0.0323,0.0296,0.0294,0.0307,0.0307,0.0306,0.0306,0,0.0325,0.0346,0.0359,0.0385,0.0394,0.0411,0.0409,0.0413,0.0406,0.0406,0.041,0.0381,0.038,0.0369,0.0354,0.0358,0.0341,0.0327,0.0313,0.0329,0.0299,0.0297,0.031,0.0309,0.0308,0.0308,0,0,0.0337,0.0378,0.0383,0.0408,0.0425,0.0439,0.0456,0.0474,0.0498,0.0474,0.0497,0.0472,0.0453,0.0446,0.0419,0.0399,0.0383,0.0371,0.0369,0.035,0.0339,0.0326,0.0322,0.0371,0.0371,0.0371,0.0312,0,0.0369,0.0425,0.0433,0.0483,0.0515,0.0511,0.0535,0.0545,0.0548,0.0562,0.0523,0.0531,0.0484,0.0481,0.0454,0.0409,0.0381,0.04,0.0322,0.032,0.031,0.032,0.0331,0.0279,0.0309,0.0309,0.0309,0,0.0406,0.0442,0.0499,0.055,0.0564,0.0586,0.063,0.0651,0.0661,0.0661,0.0652,0.062,0.059,0.0541,0.0464,0.048,0.0415,0.0368,0.0364,0.0338,0.0303,0.0269,0.0274,0.0305,0.0305,0.0305,0.0306,0,0.0433,0.0489,0.054,0.0558,0.0608,0.063,0.0656,0.0683,0.0722,0.0725,0.0742,0.0697,0.0678,0.0593,0.0487,0.0478,0.0397,0.037,0.0293,0.029,0.0278,0.0275,0.0311,0.0311,0.0311,0.0312,0.0312,0,0.0472,0.0512,0.0557,0.0588,0.0655,0.0672,0.0743,0.0759,0.0799,0.0854,0.0796,0.0815,0.0691,0.0625,0.0516,0.0403,0.0415,0.0303,0.0279,0.0292,0.0291,0.0298,0.0297,0.0309,0.031,0.031,0.0311,0,0.0497,0.0525,0.059,0.0648,0.0671,0.0721,0.0805,0.0862,0.0882,0.0945,0.0946,0.091,0.0828,0.0692,0.0559,0.0451,0.0335,0.0287,0.0307,0.0286,0.023,0.0232,0.0198,0.0197,0.0196,0.0196,0.0195,0,0.0517,0.0553,0.0634,0.0681,0.071,0.0786,0.0849,0.0901,0.097,0.1008,0.1045,0.0981,0.0956,0.0752,0.0558,0.0366,0.0336,0.0238,0.0221,0.0241,0.022,0.0224,0.0227,0.0213,0.0213,0.0213,0.0212,0,0.0556,0.0581,0.0637,0.0732,0.0802,0.0895,0.0984,0.1051,0.1114,0.116,0.1208,0.1185,0.0994,0.0815,0.0547,0.041,0.027,0.0227,0.0248,0.0246,0.0252,0.0233,0.0236,0.021,0.021,0.021,0.0211,0.0211,0.0583,0.0627,0.0698,0.0789,0.0876,0.0988,0.1071,0.1168,0.1275,0.1348,0.1327,0.129,0.1075,0.0744,0.051,0.0257,0.0273,0.0172,0.0174,0.0176,0.0194,0.02,0.015,0.015,0.015,0.015,0.015,0,0.0615,0.0669,0.0752,0.0863,0.0961,0.1005,0.1153,0.1239,0.1362,0.142,0.1456,0.1234,0.1028,0.0769,0.0403,0.019,0.0169,0.0107,0.0131,0.0136,0.0139,0.0156,0.0101,0.01,0.0099,0.0098,0,0,0.0634,0.0711,0.0754,0.0908,0.0992,0.1131,0.1219,0.1339,0.1417,0.1478,0.1455,0.1418,0.1103,0.0827,0.0535,0.032,0.0275,0.027,0.0333,0.0401,0.0407,0.0199,0.0233,0,0,0,0,0]}],[{"header":{"parameterUnit":"m.s-1","parameterCategory":2,"la1":30.2991,"la2":30.254,"lo1":-89.0895,"lo2":-89.0444,"dy":0.0017,"dx":0.0017,"nx":28,"ny":28,"refTime":"2024-12-31T03:00:00:Z","depth":"4","parameterNumber":2,"parameterNumberName":"U-component_of_CURRENTS"},"data":[0,0,0,0,0,0,0,0,0,0,0,0,0,0,0,0,0,0,0,0,0,0,0,0,0,0,0,0,0,0,0,0,0,0,0,0,0,0,0,0,0,0,0,0,0,0,0,0,0,0,0,0,0,0,0,0,0,0,0.1417,0.1417,0,0.1454,0.1454,0.1454,0.1497,0.1498,0.1499,0.1499,0.1541,0.1541,0.1542,0,0,0,0,0,0,0,0,0,0,0,0,0,0.1393,0.1393,0.1416,0.1417,0.1418,0.1454,0.1454,0.1454,0.1497,0.1498,0.1499,0.15,0.1541,0.1541,0.1542,0,0,0,0,0,0,0,0,0,0,0,0,0,0.1412,0.1393,0.1416,0.1444,0.1447,0.1454,0.1454,0.1455,0.1497,0.1498,0.1499,0.15,0.1541,0.1541,0.1542,0.1522,0,0,0.1544,0.1544,0,0,0,0,0,0,0,0,0.1411,0.1413,0.144,0.1442,0.1446,0.1473,0.1461,0.1478,0.1497,0.1476,0.1499,0.1501,0.1519,0.1521,0.1524,0.1524,0.1526,0.1544,0.1544,0.1544,0.1544,0,0,0,0,0,0,0,0.141,0.1412,0.143,0.144,0.1444,0.1459,0.1463,0.1464,0.149,0.1478,0.1482,0.1488,0.1521,0.1523,0.1525,0.1527,0.1544,0.1544,0.1545,0.1545,0.161,0.1612,0,0,0,0,0,0,0.1406,0.141,0.1429,0.1431,0.1433,0.1458,0.1463,0.1462,0.149,0.1495,0.1487,0.149,0.1521,0.1524,0.1527,0.1592,0.1544,0.1545,0.1545,0.1609,0.1611,0.1612,0,0,0,0,0,0,0.1405,0.1407,0.1427,0.1423,0.1427,0.1458,0.1457,0.1462,0.1497,0.1496,0.1502,0.152,0.1522,0.1526,0.156,0.159,0.1545,0.1546,0.1607,0.161,0.1611,0.1666,0,0,0,0,0,0,0.1404,0.1406,0.1422,0.1423,0.1427,0.1451,0.1456,0.1462,0.1497,0.1502,0.1526,0.1529,0.1524,0.156,0.1561,0.159,0.1546,0.1606,0.1608,0.1611,0.1662,0.167,0.1676,0,0,0,0,0,0.1403,0.1412,0.1422,0.1426,0.1441,0.1452,0.1456,0.148,0.1498,0.1515,0.1538,0.153,0.1577,0.1561,0.1562,0.1593,0.1604,0.1608,0.1611,0.1659,0.1668,0.1676,0,0,0,0,0,0,0.1414,0.1418,0.1429,0.1441,0.1456,0.146,0.1484,0.1497,0.1527,0.1544,0.1544,0.1548,0.1591,0.1584,0.1566,0.162,0.1591,0.1594,0.1628,0.1636,0.1642,0.1643,0.1547,0,0,0,0,0,0.1421,0.1431,0.1437,0.1453,0.1462,0.1479,0.1494,0.151,0.1528,0.1545,0.156,0.158,0.1598,0.1612,0.1624,0.1649,0.1651,0.1671,0.1678,0.1683,0.1685,0.1728,0.1738,0.1623,0.1623,0.1622,0,0,0.1431,0.1436,0.1443,0.1457,0.1473,0.1487,0.1492,0.1523,0.1544,0.1542,0.1589,0.1606,0.1612,0.1645,0.1664,0.1647,0.1717,0.1687,0.1692,0.1691,0.1732,0.1743,0.1753,0.1625,0.1624,0.1624,0,0,0.1442,0.146,0.1469,0.1482,0.151,0.1517,0.1533,0.1555,0.1581,0.1618,0.1628,0.1664,0.169,0.17,0.1706,0.1756,0.1753,0.1767,0.18,0.1841,0.1851,0.186,0.1872,0.1881,0.1769,0.1769,0.1769,0,0.146,0.1464,0.1477,0.1489,0.1505,0.1533,0.1549,0.1573,0.1608,0.1635,0.1645,0.1708,0.1713,0.1752,0.1772,0.1771,0.1789,0.1768,0.185,0.1859,0.1867,0.1877,0.1887,0.1772,0.1771,0.1771,0.1771,0,0.1462,0.1483,0.1493,0.1514,0.1533,0.1555,0.1582,0.162,0.1659,0.1685,0.1751,0.1767,0.1805,0.1815,0.1809,0.1869,0.1861,0.1856,0.1829,0.1882,0.1889,0.1898,0.1776,0.1775,0.1774,0.1773,0,0,0.1456,0.1488,0.1496,0.1512,0.155,0.1562,0.1609,0.1653,0.1698,0.1749,0.1805,0.1844,0.1874,0.1883,0.1889,0.192,0.1986,0.1918,0.1919,0.1928,0.2071,0.1921,0.1916,0.2008,0.201,0.2012,0.2052,0,0.146,0.148,0.1498,0.1532,0.1544,0.1588,0.1627,0.1678,0.1733,0.1797,0.1841,0.1899,0.1893,0.1927,0.1961,0.1987,0.2015,0.1975,0.202,0.2021,0.1879,0.1922,0.2018,0.2058,0.206,0.2062,0.2063,0,0.1448,0.1465,0.1493,0.1539,0.1552,0.1585,0.166,0.1701,0.1793,0.1844,0.1916,0.1955,0.2019,0.2006,0.2079,0.2062,0.2073,0.2082,0.2084,0.1929,0.1886,0.1996,0.2079,0.2078,0.2076,0.2075,0.2074,0,0.1416,0.146,0.1484,0.1499,0.1557,0.1595,0.164,0.1726,0.1775,0.1887,0.1941,0.2021,0.2075,0.2114,0.2138,0.2128,0.2205,0.2188,0.2057,0.2046,0.2146,0.2136,0.2235,0.2235,0.2235,0.2235,0.2235,0,0.1388,0.1413,0.1479,0.149,0.1539,0.1589,0.166,0.1722,0.182,0.1878,0.197,0.2018,0.2112,0.2161,0.2169,0.2135,0.2235,0.2063,0.2049,0.2166,0.2158,0.2151,0.2141,0.2236,0.2236,0.2236,0.2235,0,0.134,0.1383,0.1417,0.1492,0.1523,0.1562,0.1664,0.1707,0.1816,0.1894,0.1935,0.2049,0.2107,0.2162,0.2225,0.2156,0.2148,0.211,0.2225,0.2217,0.1952,0.1944,0.1961,0.1957,0.1952,0.1949,0.1946,0,0.131,0.1324,0.1412,0.1438,0.1478,0.1548,0.1589,0.1698,0.174,0.1886,0.1906,0.2013,0.2068,0.2033,0.2104,0.2101,0.2073,0.2046,0.1994,0.194,0.1927,0.1925,0.1923,0.1939,0.1938,0.1937,0.1936,0,0.1255,0.1305,0.1335,0.1388,0.1437,0.1477,0.1545,0.1566,0.1683,0.18,0.1831,0.1855,0.191,0.1942,0.1954,0.1949,0.2052,0.2002,0.201,0.1961,0.1914,0.1904,0.1907,0.1922,0.1924,0.1925,0.1926,0,0.1226,0.1234,0.1283,0.1317,0.1375,0.1378,0.1426,0.1461,0.1516,0.1668,0.1677,0.1784,0.1894,0.1863,0.1877,0.1858,0.1822,0.1746,0.1766,0.1783,0.1703,0.1616,0.1521,0,0,0,0,0,0.1184,0.1176,0.1202,0.1221,0.1272,0.1302,0.1378,0.1427,0.1542,0.1518,0.1591,0.163,0.1648,0.1706,0.1649,0.1791,0.1828,0.1713,0.1751,0.1842,0.1858,0.1779,0,0,0,0,0,0,0.1152,0.1176,0.1168,0.1133,0.1131,0.1164,0.1209,0.1284,0.1274,0.1405,0.1428,0.1522,0.1572,0.1669,0.1619,0.1633,0.1617,0.1783,0.1778,0.1832,0.1847,0.1861,0.1785,0,0,0,0,0]},{"header":{"parameterUnit":"m.s-1","parameterCategory":2,"la1":30.2991,"la2":30.254,"lo1":-89.0895,"lo2":-89.0444,"dy":0.0017,"dx":0.0017,"nx":28,"ny":28,"refTime":"2024-12-31T03:00:00:Z","depth":"4","parameterNumber":3,"parameterNumberName":"V-component_of_CURRENTS"},"data":[0,0,0,0,0,0,0,0,0,0,0,0,0,0,0,0,0,0,0,0,0,0,0,0,0,0,0,0,0,0,0,0,0,0,0,0,0,0,0,0,0,0,0,0,0,0,0,0,0,0,0,0,0,0,0,0,0,0,0.026,0.026,0,0.0261,0.0261,0.0261,0.0259,0.0259,0.0259,0.0259,0.0262,0.0262,0.0262,0,0,0,0,0,0,0,0,0,0,0,0,0,0.0236,0.0236,0.026,0.026,0.026,0.0261,0.0261,0.0261,0.0259,0.0259,0.0259,0.0259,0.0262,0.0262,0.0262,0,0,0,0,0,0,0,0,0,0,0,0,0,0.0242,0.0237,0.026,0.0259,0.0259,0.0261,0.0261,0.0261,0.0259,0.0259,0.0259,0.0259,0.0262,0.0262,0.0262,0.0265,0,0,0.0263,0.0263,0,0,0,0,0,0,0,0,0.0242,0.0243,0.026,0.026,0.0259,0.026,0.0253,0.0262,0.0259,0.0259,0.0259,0.0259,0.0261,0.0262,0.0262,0.0265,0.0265,0.0263,0.0263,0.0263,0.0263,0,0,0,0,0,0,0,0.0242,0.0243,0.0261,0.026,0.026,0.0251,0.0252,0.0255,0.0261,0.0259,0.0259,0.0259,0.0261,0.0262,0.0262,0.0265,0.0263,0.0263,0.0263,0.0263,0.028,0.028,0,0,0,0,0,0,0.0243,0.0243,0.0261,0.0261,0.025,0.0252,0.0253,0.026,0.0261,0.0261,0.0259,0.0259,0.0262,0.0262,0.0262,0.0285,0.0263,0.0263,0.0263,0.0279,0.028,0.028,0,0,0,0,0,0,0.0242,0.0245,0.0261,0.0251,0.0253,0.0253,0.026,0.026,0.0265,0.0261,0.0261,0.0265,0.0262,0.0262,0.0272,0.0284,0.0263,0.0264,0.0279,0.0279,0.028,0.0318,0,0,0,0,0,0,0.0242,0.0245,0.0251,0.0252,0.0253,0.0267,0.026,0.026,0.0264,0.0264,0.0265,0.0265,0.0262,0.0272,0.0272,0.0284,0.0264,0.0279,0.0279,0.028,0.0316,0.0319,0.0322,0,0,0,0,0,0.0241,0.0252,0.0252,0.0254,0.0262,0.0268,0.0268,0.0267,0.0265,0.0271,0.0272,0.0266,0.0275,0.0272,0.0273,0.0285,0.0278,0.0279,0.028,0.0315,0.0319,0.0322,0,0,0,0,0,0,0.0243,0.0253,0.0253,0.0266,0.0268,0.0267,0.0274,0.0271,0.0276,0.0278,0.0273,0.0273,0.0286,0.0279,0.0275,0.029,0.0274,0.0275,0.0301,0.0305,0.0308,0.0314,0.0264,0,0,0,0,0,0.0247,0.026,0.0263,0.0273,0.0277,0.0276,0.0278,0.0277,0.028,0.0283,0.0284,0.0284,0.0288,0.0291,0.0292,0.0303,0.0283,0.0309,0.0312,0.0315,0.032,0.0298,0.03,0.0282,0.0282,0.0282,0,0,0.025,0.0257,0.0264,0.0275,0.0278,0.0291,0.0277,0.0285,0.0297,0.0282,0.0302,0.0297,0.0293,0.0306,0.031,0.0302,0.0309,0.0316,0.0318,0.0322,0.0299,0.0301,0.0302,0.0283,0.0283,0.0283,0,0,0.0264,0.0271,0.0287,0.0294,0.0301,0.0303,0.0307,0.0311,0.0314,0.0328,0.0321,0.0323,0.0331,0.0329,0.0329,0.0349,0.0326,0.035,0.0373,0.0352,0.0353,0.0354,0.0328,0.0326,0.0351,0.0351,0.0351,0,0.0267,0.0291,0.0291,0.0309,0.032,0.0312,0.0332,0.0334,0.0341,0.0349,0.0339,0.0348,0.0342,0.0356,0.0363,0.0357,0.0339,0.0361,0.0356,0.0356,0.0357,0.033,0.0327,0.0353,0.0353,0.0353,0.0352,0,0.0294,0.0315,0.0326,0.035,0.036,0.0376,0.038,0.0389,0.039,0.0393,0.0405,0.0391,0.0396,0.0392,0.0385,0.0389,0.0374,0.0363,0.0347,0.0361,0.0331,0.0328,0.0356,0.0355,0.0354,0.0354,0,0,0.03,0.0339,0.0344,0.0366,0.0385,0.0399,0.0419,0.0439,0.046,0.0451,0.047,0.0465,0.0452,0.0451,0.0435,0.0416,0.0398,0.0394,0.0392,0.037,0.0348,0.0323,0.0316,0.0387,0.0387,0.0387,0.0326,0,0.0324,0.037,0.0381,0.0426,0.0452,0.0457,0.0481,0.0496,0.0503,0.0517,0.0493,0.0505,0.0476,0.0479,0.0455,0.0418,0.0392,0.0415,0.0337,0.0335,0.0312,0.0313,0.0386,0.0323,0.0322,0.0322,0.0321,0,0.0349,0.0381,0.043,0.0477,0.0489,0.0514,0.0555,0.0577,0.059,0.0594,0.059,0.057,0.0547,0.0514,0.0447,0.0464,0.0411,0.0371,0.0368,0.033,0.0304,0.0307,0.0315,0.0316,0.0316,0.0316,0.0317,0,0.0362,0.0414,0.0458,0.0475,0.0524,0.0549,0.0577,0.0604,0.0636,0.0643,0.0656,0.0621,0.0607,0.0538,0.0453,0.0452,0.0368,0.0354,0.0277,0.0274,0.0299,0.0299,0.0299,0.0299,0.0299,0.0299,0.03,0,0.0386,0.0422,0.0471,0.0498,0.0557,0.058,0.0642,0.0661,0.0696,0.0735,0.0699,0.0704,0.0613,0.0553,0.0467,0.0362,0.0375,0.028,0.0258,0.0315,0.0318,0.0296,0.0297,0.0297,0.0298,0.0298,0.0298,0,0.0395,0.0426,0.0483,0.0543,0.0567,0.0612,0.0691,0.0736,0.0758,0.0801,0.0804,0.0769,0.069,0.0586,0.0471,0.0386,0.0285,0.0242,0.0309,0.0292,0.02,0.0203,0.0151,0.015,0.0149,0.0148,0.0147,0,0.0404,0.0435,0.0515,0.0557,0.0589,0.066,0.0714,0.0765,0.0813,0.0839,0.0857,0.0798,0.0754,0.0573,0.046,0.0288,0.0259,0.0196,0.0197,0.0202,0.0185,0.019,0.0195,0.0145,0.0145,0.0145,0.0144,0,0.0422,0.0451,0.05,0.0584,0.0649,0.0727,0.0803,0.0839,0.0892,0.0908,0.0894,0.0801,0.0709,0.0571,0.0436,0.0313,0.0232,0.0183,0.0185,0.0185,0.0194,0.0179,0.0185,0.014,0.0141,0.0141,0.0141,0,0.0435,0.0469,0.0532,0.0607,0.0691,0.0769,0.0811,0.0862,0.0908,0.0927,0.092,0.082,0.077,0.0584,0.0463,0.0336,0.0299,0.0244,0.0241,0.0244,0.0285,0.0311,0.0274,0,0,0,0,0,0.0444,0.0483,0.0551,0.0635,0.0719,0.077,0.0861,0.0897,0.0938,0.0931,0.0927,0.0839,0.0657,0.0591,0.0459,0.0433,0.0273,0.0271,0.0207,0.0118,0.0122,0.0152,0,0,0,0,0,0,0.0451,0.0511,0.0546,0.0644,0.0703,0.08,0.0859,0.0891,0.0892,0.0907,0.0822,0.0782,0.0619,0.0728,0.0448,0.0412,0.0347,0.0196,0.0192,0.0115,0.0119,0.0123,0.0155,0,0,0,0,0]}]]